Zurück zum Katalog

STARLINK-35248

AktivKommunikationSSO
NORAD 65598·PAYLOAD·🇺🇸 United States

Gestartet Sep 13, 2025 von Cape Canaveral Space Force Station

Loading…

Nächste Überflüge (nächste 24 Stunden)

TLE

AktuellSource: CelesTrak SupGP

Epoche: Sep 14, 2026, 21:08 UTC

1 65598C 25207G   26257.88104167  .02226300  00000+0  10495+0 0  2575
2 65598  97.2841 320.5936 0001855  87.7146 268.6575 15.18451331    18

Verfolge STARLINK-35248 in Echtzeit mit AllMySat

Download on the App Store